Tracking 35274 objects as of 12-Sep-2026
HD Live streaming from Space Station
objects crossing your sky now

SL-6 R/B(1)


SL-6 R/B(1) is no longer on orbit


NORAD ID: 9636
Int'l Code: 1976-127B
Launch date: December 28, 1976
Source: Commonwealth of Independent States (former USSR) (CIS)
Launch site: PLESETSK MISSILE AND SPACE COMPLEX (PKMTR)
Decay date: 1977-03-16

Note: This is a ROCKET BODY
Your satellite tracking list
Your tracking list is empty




NASA's NSSDC Master Catalog

Two Line Element Set (TLE):
1 09636U 76127  B 77074.40154753  .04722018 +00000-0 +00000-0 0  9995
2 09636 062.8092 213.2144 0023419 119.3982 242.4503 16.33731461012189
Source of the keplerian elements: AFSPC